Powrót do katalogu

FENGYUN 1C DEB

AktywnySSO
NORAD 30665·DEBRIS·🇨🇳 China

Wystrzelony May 10, 1999 z Taiyuan Satellite Launch Center

Loading…

Następne Przeloty (najbliższe 24 godziny)

TLE

ŚwieżeSource: Space-Track

Epoka: Sep 14, 2026, 09:41 UTC

1 30665U 99025APX 26257.40390177  .00001479  00000-0  79006-3 0  9994
2 30665  99.2235 242.1241 0067822 147.6903  12.2726 14.13689594998638

Śledź FENGYUN 1C DEB w czasie rzeczywistym z AllMySat

Download on the App Store